Location: Cheyres
(46.8153°N, 6.7877°E)
Time: 21:53:29
(UTC+00:00)

Cosmos 1328 Rocket - Pass Details

Date: 21 September 2021
Orbit: 601 x 627 km, 82.5° (Epoch: 17 October)

Event Time Altitude Azimuth Distance (km) Brightness Sun altitude
Exits shadow 03:39:11 18° 195° (SSW) 1,499 5.2 -17.4°
Maximum altitude 03:42:21 76° 280° (W) 633 3.4 -16.9°
Drops below altitude 10° 03:46:42 10° 6° (N) 1,964 6.4 -16.2°
Sets 03:48:55 0° 8° (N) 2,870 7.4 -15.8°
